This is the latest recevied weather packets stored in our database for station/object W8UFO-13. If no packets are shown the sender has not sent any weather packets the latest 10 day(s).
| Time | Temp. | Humidity | Pressure | Rain* | Wind** | Luminosity | Snow |
|---|---|---|---|---|---|---|---|
| 1777738456 | 17.78° C | 41% | 1017.5 hPa | 0 mm | - | - | - |
| 1777738156 | 17.78° C | 43% | 1017.6 hPa | 0 mm | - | - | - |
| 1777737856 | 17.22° C | 47% | 1017.4 hPa | 0 mm | - | - | - |
| 1777737556 | 17.22° C | 45% | 1017.3 hPa | 0 mm | - | - | - |
| 1777737256 | 17.22° C | 42% | 1017.4 hPa | 0 mm | - | - | - |
| 1777736956 | 17.22° C | 45% | 1017.5 hPa | 0 mm | - | - | - |
| 1777736656 | 17.22° C | 47% | 1017.2 hPa | 0 mm | - | - | - |
| 1777736356 | 16.11° C | 53% | 1017.2 hPa | 0 mm | - | - | - |
| 1777736056 | 16.11° C | 46% | 1017.3 hPa | 0 mm | - | - | - |
| 1777735756 | 16.11° C | 49% | 1017.3 hPa | 0 mm | - | - | - |
| 1777735456 | 16.11° C | 50% | 1017.3 hPa | 0 mm | - | - | - |
| 1777735156 | 15.56° C | 51% | 1017.3 hPa | 0 mm | - | - | - |
| 1777734856 | 15.56° C | 50% | 1017.3 hPa | 0 mm | - | - | - |
| 1777734556 | 15.56° C | 48% | 1017.3 hPa | 0 mm | - | - | - |
| 1777734256 | 15.56° C | 49% | 1017.4 hPa | 0 mm | - | - | - |
| 1777733956 | 15° C | 54% | 1017.6 hPa | 0 mm | - | - | - |
| 1777733656 | 15° C | 51% | 1017.4 hPa | 0 mm | - | - | - |
| 1777733356 | 14.44° C | 49% | 1017.4 hPa | 0 mm | - | - | - |
| 1777733056 | 14.44° C | 49% | 1017.2 hPa | 0 mm | - | - | - |
| 1777732756 | 14.44° C | 53% | 1017.2 hPa | 0 mm | - | - | - |
| 1777732456 | 13.89° C | 54% | 1017.3 hPa | 0 mm | - | - | - |
| 1777732156 | 13.89° C | 53% | 1017.1 hPa | 0 mm | - | - | - |
| 1777731856 | 13.89° C | 54% | 1017.1 hPa | 0 mm | - | - | - |
| 1777731576 | 13.89° C | 52% | 1017.3 hPa | 0 mm | - | - | - |
| 1777731256 | 13.89° C | 52% | 1017.2 hPa | 0 mm | - | - | - |
* Rain latest hour (hover to see other rain measurements)
** Current wind speed in m/s (hover to see current wind gust speed)